Temp
13 14 15 16 17 18 19 20 20 20 19 18 18 18 17 16 15 15 14 14 13 12 12 11 13 12 13 13 14 13 13 13 12 12 11 10 10 10 8 9 8 11 10 10
14 14 16 16 17 18 19 20 20 20 19 18 19 19 18 17 16 16 15 14 13 13 12 11 11 13 14 14 14 14 14 13 13 12 11 11 10 7 8 9 11 11 11 11
16 16 16 17 17 18 18 19 20 21 19 18 19 19 19 18 17 16 15 15 14 14 13 12 11 13 13 14 14 14 14 13 13 12 11 11 10 10 10 9 11 11 11 11
15 17 16 16 17 18 18 19 20 20 19 19 19 20 19 19 18 17 16 15 15 14 14 13 11 12 13 14 14 14 14 13 13 12 12 12 11 11 10 10 9 11 12 12
16 16 17 16 17 17 18 19 19 20 20 18 20 20 21 19 19 18 17 16 16 15 14 13 12 11 12 13 14 14 14 13 13 13 12 12 12 11 8 9 11 11 11 11
16 16 16 17 17 17 18 18 19 19 20 21 20 20 20 18 20 19 19 18 16 15 15 14 13 12 12 12 14 14 14 13 14 13 13 13 12 12 11 11 11 11 11 11
15 16 16 16 16 17 17 18 19 20 21 21 21 21 19 21 20 19 19 19 18 16 15 14 15 15 14 15 14 14 14 14 14 14 14 13 12 11 11 11 11 11 11 11
15 16 16 16 16 17 17 18 19 19 21 22 20 21 21 20 20 20 19 19 19 17 16 15 17 17 17 16 16 15 15 15 14 14 14 13 12 12 11 11 11 11 11 11
17 16 16 16 16 16 17 18 19 20 20 21 21 21 20 20 20 19 19 19 19 18 17 17 18 17 17 17 17 16 15 15 14 14 13 13 13 12 12 12 11 11 11 11
16 17 17 16 16 16 17 18 18 19 21 21 21 21 21 20 19 19 19 19 19 18 17 16 16 17 17 16 16 16 15 14 14 14 14 13 13 12 12 12 12 11 11 11
15 16 17 16 16 16 16 17 18 19 19 21 21 22 21 20 19 19 19 19 19 19 17 17 16 17 18 17 16 16 15 15 14 14 14 13 13 13 12 12 12 11 11 11
15 15 16 17 16 16 16 17 18 19 19 19 20 22 21 20 19 19 19 19 19 19 18 17 16 15 17 18 17 16 15 15 14 14 14 14 13 13 13 13 12 12 11 11
15 15 16 16 16 16 16 17 17 18 19 19 20 20 20 20 20 19 19 19 19 19 18 17 17 16 15 17 18 16 15 15 14 14 14 14 13 13 13 13 12 12 11 11
14 15 15 17 16 17 16 16 17 18 18 19 19 19 20 20 19 19 18 18 19 19 18 17 17 16 16 17 18 17 16 15 15 14 14 14 13 13 13 13 12 12 12 11
13 14 15 15 16 16 17 17 17 17 17 18 19 19 19 19 19 19 18 18 18 19 18 18 18 18 18 17 18 18 16 15 15 15 14 14 14 14 13 13 13 12 12 11
13 13 14 15 15 16 16 17 17 17 17 17 18 18 19 19 19 19 18 18 18 18 18 18 18 18 18 18 18 18 17 16 15 15 15 14 15 15 14 13 13 13 12 11
12 13 13 14 15 15 16 16 17 17 17 17 16 17 17 18 18 18 18 18 18 17 18 18 18 19 18 18 18 18 17 16 16 15 15 15 15 15 14 14 14 14 13 13
12 12 13 14 14 15 15 16 16 16 16 17 17 17 17 17 17 17 18 18 17 17 17 18 17 18 18 18 18 17 17 16 16 15 15 15 15 15 15 14 14 13 13 13
12 12 12 13 14 15 14 14 14 14 15 16 16 17 17 17 17 17 17 17 17 17 18 18 18 18 18 18 18 17 17 16 16 16 16 16 15 15 14 14 13 13 13 13
10 11 12 13 14 15 15 11 11 14 14 15 15 15 16 17 16 17 17 17 17 17 17 17 18 18 18 18 18 18 17 16 16 16 16 15 15 15 14 13 13 13 13 12
10 10 11 12 13 14 12 12 12 12 14 14 14 14 15 16 16 16 17 17 17 16 17 16 17 18 18 18 18 17 17 17 16 16 15 15 15 14 13 13 13 12 12 12
10 11 12 12 13 14 11 11 12 13 13 12 13 14 15 15 16 15 16 16 16 16 16 17 17 18 18 18 17 17 17 16 16 15 15 14 14 13 13 13 12 12 12 11
11 11 12 13 13 10 11 12 12 12 11 10 12 13 13 14 14 14 15 15 15 15 16 17 17 17 18 17 16 16 16 15 15 14 14 14 13 13 12 12 12 12 11 10
11 11 12 10 7 9 10 11 11 11 9 9 10 10 11 11 11 11 12 11 12 13 14 15 16 15 17 16 15 14 14 14 13 13 13 12 12 12 12 12 12 11 10 9
8 7 10 9 6 7 9 10 9 9 7 9 10 9 8 8 8 9 8 8 8 8 10 13 14 13 14 14 13 13 12 12 12 12 12 12 12 12 12 12 10 10 9 8
4 5 7 6 8 7 8 8 6 6 6 7 9 9 8 8 8 8 8 7 7 9 10 11 11 11 12 12 12 11 11 12 12 12 12 12 12 12 11 10 9 8 8 7
Height
3133 3138 3135 3142 3147 3150 3148 3146 3147 3149 3151 3160 3162 3164 3167 3170 3172 3174 3176 3177 3178 3180 3182 3183 3183 3185 3187 3188 3190 3192 3194 3195 3197 3198 3200 3201 3202 3203 3202 3203 3204 3203 3204 3204
3132 3127 3135 3142 3145 3147 3145 3143 3143 3147 3148 3155 3157 3159 3162 3165 3168 3171 3172 3173 3175 3177 3179 3179 3180 3182 3183 3185 3187 3189 3191 3193 3194 3195 3197 3199 3200 3201 3200 3200 3200 3200 3201 3201
3122 3125 3133 3137 3139 3142 3142 3140 3140 3142 3143 3154 3154 3156 3157 3160 3164 3166 3168 3170 3171 3173 3175 3175 3176 3177 3180 3181 3184 3186 3188 3190 3191 3193 3194 3195 3197 3197 3198 3198 3198 3199 3199 3200
3120 3124 3126 3130 3132 3137 3137 3141 3140 3140 3145 3147 3149 3145 3147 3153 3157 3160 3162 3164 3166 3168 3171 3173 3171 3172 3175 3177 3180 3182 3184 3186 3188 3190 3190 3193 3194 3195 3196 3196 3197 3197 3198 3200
3113 3117 3119 3121 3124 3132 3133 3138 3139 3138 3137 3143 3139 3143 3139 3145 3146 3152 3157 3159 3161 3164 3165 3167 3168 3168 3171 3173 3174 3177 3179 3182 3184 3187 3188 3190 3190 3193 3195 3195 3197 3199 3200 3201
3109 3113 3115 3117 3123 3127 3133 3135 3135 3135 3133 3130 3132 3135 3134 3142 3141 3145 3149 3153 3156 3158 3161 3162 3164 3165 3165 3168 3169 3171 3174 3178 3181 3184 3185 3187 3189 3191 3193 3195 3196 3198 3199 3200
3103 3103 3108 3113 3117 3122 3126 3129 3127 3125 3121 3120 3125 3127 3134 3130 3135 3140 3144 3147 3149 3152 3155 3156 3157 3159 3159 3161 3163 3166 3169 3173 3177 3180 3182 3184 3187 3189 3191 3193 3195 3197 3198 3199
3093 3094 3098 3103 3105 3112 3114 3117 3114 3114 3110 3114 3119 3115 3120 3127 3131 3136 3139 3142 3144 3146 3148 3149 3151 3153 3154 3157 3159 3162 3164 3169 3173 3177 3179 3182 3184 3187 3189 3191 3193 3195 3196 3196
3083 3086 3092 3096 3102 3108 3106 3106 3113 3113 3110 3109 3108 3113 3118 3121 3126 3131 3135 3137 3138 3141 3144 3144 3145 3147 3150 3152 3156 3159 3162 3166 3170 3174 3176 3179 3181 3184 3186 3188 3190 3192 3192 3193
3078 3080 3083 3089 3098 3097 3097 3105 3107 3102 3098 3097 3100 3102 3107 3114 3122 3126 3129 3132 3134 3136 3139 3140 3140 3142 3145 3147 3152 3155 3159 3162 3166 3169 3172 3175 3178 3180 3182 3185 3186 3188 3189 3189
3075 3076 3079 3082 3078 3083 3092 3089 3093 3099 3098 3092 3094 3092 3101 3107 3114 3119 3123 3126 3129 3131 3134 3136 3136 3137 3141 3143 3146 3150 3154 3157 3161 3164 3167 3170 3173 3176 3179 3180 3181 3183 3184 3186
3066 3070 3071 3070 3075 3080 3084 3085 3088 3087 3091 3091 3091 3087 3095 3102 3108 3114 3116 3119 3123 3125 3128 3131 3134 3134 3135 3137 3140 3144 3148 3152 3156 3159 3163 3166 3169 3172 3174 3175 3176 3177 3180 3179
3059 3061 3063 3067 3070 3070 3070 3073 3077 3081 3085 3081 3086 3087 3093 3099 3101 3106 3112 3116 3118 3120 3123 3126 3128 3130 3129 3131 3134 3137 3142 3147 3151 3154 3157 3161 3163 3166 3167 3169 3170 3172 3174 3174
3051 3052 3052 3049 3056 3061 3065 3070 3072 3075 3073 3076 3075 3087 3089 3093 3098 3103 3107 3110 3113 3115 3116 3120 3122 3123 3124 3125 3128 3132 3136 3141 3145 3148 3151 3154 3157 3160 3161 3163 3164 3164 3167 3167
3046 3046 3047 3049 3050 3054 3056 3060 3065 3065 3068 3069 3073 3078 3082 3087 3093 3097 3102 3105 3108 3110 3111 3112 3114 3115 3116 3118 3122 3126 3131 3135 3139 3142 3145 3148 3151 3153 3155 3156 3157 3158 3159 3160
3039 3041 3044 3043 3046 3050 3049 3051 3055 3059 3064 3064 3069 3068 3077 3083 3086 3090 3093 3098 3101 3103 3107 3105 3106 3108 3108 3111 3116 3120 3125 3128 3132 3136 3140 3142 3143 3147 3149 3150 3151 3151 3152 3152
3031 3035 3041 3038 3041 3043 3045 3043 3045 3048 3052 3058 3061 3063 3073 3073 3075 3080 3085 3089 3093 3097 3100 3101 3099 3101 3102 3105 3110 3114 3118 3122 3126 3131 3134 3135 3136 3140 3142 3144 3144 3145 3145 3145
3023 3029 3033 3033 3037 3034 3032 3039 3042 3043 3045 3048 3051 3057 3062 3064 3068 3071 3076 3080 3084 3088 3091 3094 3093 3094 3096 3099 3104 3109 3112 3116 3120 3125 3128 3129 3131 3133 3136 3137 3137 3137 3137 3137
3016 3023 3027 3027 3026 3027 3030 3035 3036 3036 3036 3039 3043 3047 3050 3056 3060 3062 3065 3068 3075 3079 3083 3086 3085 3087 3089 3093 3098 3102 3106 3110 3114 3117 3120 3123 3125 3127 3129 3129 3130 3130 3130 3130
3011 3017 3019 3021 3018 3013 3022 3023 3037 3033 3031 3037 3039 3039 3042 3046 3048 3047 3054 3059 3065 3069 3073 3077 3077 3079 3083 3087 3091 3096 3100 3104 3107 3110 3113 3117 3119 3121 3122 3123 3123 3122 3121 3121
3003 3008 3010 3015 3012 3013 3013 3019 3025 3034 3031 3028 3031 3032 3033 3035 3037 3045 3046 3050 3054 3059 3063 3065 3069 3072 3076 3081 3084 3090 3094 3098 3101 3104 3107 3110 3112 3114 3115 3116 3115 3115 3115 3113
2993 2999 3000 3008 3010 3009 3009 3015 3022 3022 3020 3024 3026 3026 3027 3029 3033 3036 3036 3039 3045 3048 3053 3056 3060 3064 3069 3073 3077 3082 3085 3089 3092 3095 3099 3102 3104 3105 3107 3107 3107 3106 3106 3105
2985 2987 2995 2998 3000 2998 3003 3010 3012 3016 3019 3021 3020 3020 3023 3024 3022 3024 3029 3033 3037 3040 3044 3047 3050 3055 3061 3065 3071 3075 3079 3082 3086 3089 3091 3095 3097 3098 3099 3099 3099 3098 3097 3096
2976 2984 2986 2990 2995 2997 3003 3004 3009 3012 3015 3016 3017 3014 3019 3018 3017 3020 3023 3029 3031 3033 3035 3037 3041 3048 3052 3058 3063 3069 3074 3077 3080 3083 3086 3088 3090 3091 3092 3091 3090 3089 3089 3089
2964 2980 2981 2982 2987 2991 2993 2998 3005 3008 3009 3010 3011 3010 3014 3015 3016 3019 3022 3027 3029 3029 3030 3032 3037 3044 3047 3053 3059 3063 3068 3072 3076 3079 3081 3083 3084 3084 3084 3083 3082 3082 3082 3082
2959 2966 2974 2977 2983 2984 2991 2998 3003 3005 3005 3005 3006 3009 3011 3011 3008 3013 3019 3022 3025 3027 3029 3031 3036 3043 3046 3051 3056 3061 3065 3069 3072 3075 3075 3075 3075 3075 3076 3076 3076 3076 3075 3075
Wind_Speed
25 29 39 36 33 29 26 24 17 20 21 23 20 16 14 14 16 16 19 22 24 24 22 23 22 24 25 24 22 21 21 18 17 16 17 18 17 16 16 17 21 15 15 16
22 36 34 31 33 31 29 27 23 18 21 26 21 21 20 17 17 18 20 21 24 25 25 26 26 25 24 23 21 20 20 19 18 17 18 18 12 14 18 16 16 16 15 15
33 30 32 33 34 35 34 31 25 23 23 23 20 23 21 19 18 19 20 21 22 27 27 29 29 28 26 26 22 20 18 20 20 18 20 19 20 14 15 13 11 12 11 10
30 26 31 37 38 36 36 31 27 26 23 21 27 26 29 25 23 22 22 24 24 26 29 29 30 31 29 27 24 22 21 22 22 20 21 18 17 16 12 9 8 6 6 6
35 32 33 38 41 39 37 31 30 28 28 30 31 30 22 25 27 24 22 24 25 25 27 31 31 30 30 29 28 25 24 23 23 22 20 19 19 15 12 12 13 12 11 8
32 28 33 33 36 35 34 32 32 33 32 25 33 31 33 24 23 20 21 21 25 26 27 29 30 30 30 30 30 29 28 26 25 23 21 20 17 16 18 17 15 13 11 8
30 37 31 34 35 37 37 37 29 27 26 21 33 34 33 25 20 22 21 21 24 27 28 29 25 27 30 29 31 29 29 28 26 24 21 19 17 18 17 18 17 15 10 6
34 30 39 34 39 40 44 45 37 26 18 20 35 34 39 29 20 15 18 18 17 25 27 28 21 23 25 26 26 26 27 27 27 24 21 19 19 19 18 18 18 14 9 8
31 34 23 40 33 37 43 50 45 40 36 29 35 35 31 23 29 28 23 22 20 23 28 24 24 24 23 23 22 23 25 26 26 24 22 19 20 21 19 18 17 14 14 12
29 24 30 31 34 33 48 42 46 45 28 26 35 33 33 32 30 27 25 21 20 22 27 30 31 26 22 25 24 24 24 25 26 25 24 22 18 18 20 18 19 19 19 18
34 28 23 28 42 44 38 50 46 46 47 21 20 30 33 24 21 28 25 24 21 20 25 28 32 27 22 27 28 27 26 27 28 28 28 27 24 20 20 19 23 25 26 22
35 30 28 28 35 33 39 43 48 40 39 44 42 34 27 26 21 21 20 17 20 21 23 24 29 31 29 25 29 31 29 28 27 28 29 28 27 25 23 24 27 30 29 31
34 36 30 29 27 33 42 45 48 51 41 44 33 37 35 20 24 28 26 24 20 13 16 21 24 33 35 31 27 31 32 30 27 27 26 27 28 27 27 28 33 34 34 37
24 33 41 30 34 30 39 39 44 46 47 39 48 43 38 34 23 22 21 20 22 17 21 18 24 27 34 35 31 28 31 32 30 30 30 28 27 27 29 31 33 37 36 39
27 31 35 37 32 26 32 37 39 47 46 48 42 45 42 39 35 30 27 24 21 20 22 21 20 22 26 35 33 30 32 32 33 33 31 30 29 30 32 33 34 35 36 38
34 31 29 30 31 34 32 32 40 38 44 49 45 49 43 42 37 30 31 29 27 24 21 28 25 25 25 31 34 31 32 35 35 34 31 31 31 30 33 33 33 34 34 36
34 32 32 32 30 26 34 37 35 35 40 42 47 52 42 43 40 41 41 37 35 30 27 28 26 26 24 33 34 35 36 37 36 33 33 31 32 31 32 30 31 31 28 28
33 38 34 33 28 25 36 31 33 38 40 40 43 41 42 49 49 46 37 34 34 35 35 30 35 30 27 34 33 34 32 36 36 31 30 33 34 31 27 26 25 16 15 19
32 33 34 33 37 27 32 20 16 15 22 31 39 39 39 40 40 48 52 52 40 31 29 31 37 32 29 36 33 32 32 29 32 35 35 35 33 28 23 22 19 17 21 24
30 28 31 33 32 26 23 14 19 19 23 23 24 27 32 36 41 42 42 39 42 37 33 30 34 33 32 39 36 33 34 33 34 37 37 34 29 27 25 22 21 22 22 22
40 39 39 36 30 32 17 20 20 19 16 19 28 33 34 33 40 36 30 36 37 41 37 33 31 32 31 40 40 36 35 35 36 37 34 31 28 26 26 23 19 19 22 25
41 42 41 37 38 31 16 10 18 21 18 17 24 30 35 33 31 35 35 30 35 40 41 42 39 35 35 39 39 36 35 36 37 36 33 31 30 28 26 22 24 26 26 28
46 44 39 27 36 26 20 22 19 26 24 19 25 27 14 18 31 29 34 39 41 33 39 38 38 36 38 36 35 35 36 36 34 33 31 30 27 26 23 26 31 31 29 30
34 36 42 18 11 21 22 22 24 26 21 9 4 3 8 15 17 18 24 17 21 28 31 34 37 35 37 35 36 34 34 35 33 31 29 26 24 28 30 33 34 31 30 29
31 25 20 22 17 13 17 22 16 17 14 20 14 20 21 21 19 20 24 25 23 25 27 29 31 32 34 36 36 35 32 31 29 27 27 27 28 31 31 31 28 29 27 25
15 14 17 27 14 9 14 15 14 16 13 12 23 23 29 35 33 33 30 26 25 30 33 34 35 33 33 33 30 25 23 22 24 24 25 24 25 24 23 24 25 24 24 24
Wind_Direction
203 203 210 212 211 215 222 216 225 224 191 196 204 215 189 203 203 206 214 210 213 212 213 212 220 220 224 226 226 227 227 228 229 232 231 235 246 251 261 246 247 255 263 272
210 214 213 212 214 216 228 234 227 215 182 193 205 210 211 210 212 213 217 219 217 217 214 215 220 222 231 236 237 233 235 234 232 231 229 234 259 246 256 250 254 255 258 258
213 218 209 212 215 218 224 232 231 218 181 206 216 225 214 217 230 221 221 223 223 218 216 220 217 225 231 238 241 246 241 236 237 235 228 230 234 234 242 239 242 243 246 244
223 218 215 212 218 216 223 221 233 225 195 226 210 246 209 220 222 230 228 222 222 219 217 219 220 224 230 240 244 242 239 234 235 227 231 225 236 233 234 230 235 218 187 170
222 218 216 217 217 215 223 220 226 233 217 219 213 224 235 216 211 217 229 229 221 221 218 217 223 224 228 235 240 240 238 234 232 226 220 214 219 218 206 182 160 148 144 139
225 226 221 222 220 219 218 226 230 231 239 238 236 218 233 207 218 214 222 228 227 219 219 219 218 223 232 231 240 241 235 233 226 219 210 209 204 199 178 168 168 169 168 164
224 223 226 218 220 218 216 221 230 232 224 239 232 223 231 226 221 214 223 227 227 223 216 217 228 227 231 234 237 236 232 223 216 211 209 206 202 196 193 187 186 183 193 202
217 220 217 217 219 217 215 215 220 224 227 223 232 234 231 230 217 214 219 230 238 221 217 218 237 239 240 234 233 230 226 213 209 210 211 208 203 201 200 199 197 203 219 234
218 227 227 220 222 218 219 220 222 231 233 237 229 225 240 231 231 232 238 241 231 225 217 221 231 238 245 241 228 226 221 210 210 212 214 209 209 206 206 208 209 217 229 240
226 240 224 221 221 227 223 221 221 228 236 230 228 237 222 221 231 229 231 232 232 226 220 216 222 231 235 243 224 219 215 210 210 216 219 217 211 213 217 225 228 231 237 243
221 227 232 216 214 219 217 229 222 228 233 243 243 234 227 223 221 223 225 227 228 225 222 218 219 230 233 242 231 223 214 211 218 223 224 224 226 230 233 242 241 236 243 262
215 222 224 228 227 225 225 224 225 225 226 237 252 246 230 218 216 216 218 216 225 226 222 221 220 219 225 233 237 230 223 220 224 230 232 233 235 238 243 249 252 247 247 255
209 220 226 226 228 222 221 223 223 228 229 230 237 239 236 213 231 226 224 233 235 210 217 232 222 220 223 231 238 232 226 224 227 227 228 229 231 237 244 250 254 259 255 257
213 220 222 223 224 225 218 223 227 227 233 234 237 239 234 236 231 228 228 223 219 235 255 236 224 223 230 233 232 235 231 229 231 233 235 237 238 243 246 252 258 263 265 265
218 226 226 228 239 228 226 222 227 232 231 237 238 235 235 233 229 232 227 230 234 237 247 263 256 258 259 235 226 235 229 224 230 235 236 240 246 245 248 253 260 265 268 271
210 222 225 233 228 235 242 234 227 229 237 241 243 246 236 236 240 235 230 231 233 242 249 264 265 256 261 228 219 231 229 224 226 231 234 242 248 249 251 259 264 265 267 267
210 215 220 231 229 235 235 234 237 238 233 233 238 243 240 242 239 238 235 238 244 247 248 252 266 251 256 226 216 229 229 221 228 229 234 242 251 256 259 257 261 270 275 279
216 217 223 231 226 234 241 238 241 243 245 245 242 243 241 242 243 241 236 240 241 244 241 247 260 263 248 221 216 223 222 222 227 227 230 241 248 253 256 262 267 255 268 281
210 214 218 230 229 236 249 245 251 245 255 240 242 246 240 240 241 241 239 238 239 241 236 243 250 256 240 214 218 222 223 217 222 232 234 243 246 247 250 252 244 273 296 300
212 213 220 215 236 238 232 175 233 242 266 259 259 255 246 238 234 239 237 236 229 227 228 236 248 253 232 214 216 219 220 222 230 238 240 239 240 250 251 240 261 292 300 292
212 215 215 225 234 233 220 235 262 249 254 248 241 242 242 244 234 236 243 224 229 230 230 233 252 245 228 219 221 224 225 229 234 237 234 238 244 238 240 258 283 296 293 288
207 205 215 215 228 236 230 215 220 246 265 269 262 249 236 237 236 234 235 228 232 233 236 240 244 238 224 218 222 222 226 228 231 230 232 236 239 239 248 270 296 301 288 280
209 209 206 220 217 218 224 228 241 260 264 277 266 263 251 240 220 229 234 242 242 241 232 234 237 221 223 224 223 226 224 222 225 228 233 239 237 249 268 287 297 293 281 279
203 212 212 190 157 199 223 239 250 256 257 233 261 271 203 197 191 195 214 193 209 215 211 215 215 202 214 211 207 207 210 213 216 224 227 232 252 267 281 286 286 282 273 276
192 192 178 184 161 183 230 244 250 245 222 222 211 166 155 150 150 164 152 149 149 156 179 189 190 188 195 196 195 200 203 214 222 230 242 256 273 281 285 284 274 268 271 273
172 135 184 199 182 182 197 203 161 151 149 173 197 193 169 160 153 159 150 152 151 157 158 166 175 180 186 192 195 201 213 227 239 256 270 278 283 283 276 271 269 272 273 276